Location: *
(49.7115°N, 15.0136°E)
Time: 10:35:28
(UTC+00:00)

STARLINK-1017 - Pass Details

Date: 27 February 2020
Orbit: 549 x 550 km, 53.0° (Epoch: 30 March)

Event Time Altitude Azimuth Distance (km) Brightness Sun altitude
Rises 18:29:54 0° 284° (WNW) 2,726 8.9 -18.8°
Reaches altitude 10° 18:32:11 10° 289° (WNW) 1,832 7.5 -19.1°
Maximum altitude 18:36:17 56° 8° (N) 659 3.9 -19.8°
Enters shadow 18:37:09 46° 54° (NE) 750 3.9 -19.9°
